This is the latest recevied weather packets stored in our database for station/object OE3MHU-13. If no packets are shown the sender has not sent any weather packets the latest 10 day(s).
| Time | Temp. | Humidity | Pressure | Rain* | Wind** | Luminosity | Snow |
|---|---|---|---|---|---|---|---|
| 1787621000 | 17.22° C | 63% | 1016.9 hPa | 0 mm | - | - | - |
| 1787620701 | 17.22° C | 63% | 1017.1 hPa | 0 mm | - | - | - |
| 1787620400 | 16.67° C | 64% | 1017 hPa | 0 mm | - | - | - |
| 1787620099 | 16.67° C | 65% | 1017 hPa | 0 mm | - | - | - |
| 1787619797 | 17.22° C | 65% | 1017.1 hPa | 0 mm | - | - | - |
| 1787619498 | 17.22° C | 64% | 1017.2 hPa | 0 mm | - | - | - |
| 1787619197 | 17.22° C | 62% | 1017.2 hPa | 0 mm | - | - | - |
| 1787618897 | 17.78° C | 62% | 1017.4 hPa | 0 mm | - | - | - |
| 1787618595 | 18.33° C | 58% | 1017.5 hPa | 0 mm | - | - | - |
| 1787618295 | 18.33° C | 58% | 1017.7 hPa | 0 mm | - | - | - |
| 1787617996 | 18.33° C | 57% | 1017.6 hPa | 0 mm | - | - | - |
| 1787617697 | 18.33° C | 57% | 1017.8 hPa | 0 mm | - | - | - |
| 1787617391 | 18.33° C | 57% | 1017.9 hPa | 0 mm | - | - | - |
| 1787617091 | 18.33° C | 57% | 1017.9 hPa | 0 mm | - | - | - |
| 1787616784 | 18.33° C | 57% | 1017.9 hPa | 0 mm | - | - | - |
| 1787616478 | 18.33° C | 56% | 1018 hPa | 0 mm | - | - | - |
| 1787616172 | 18.33° C | 56% | 1018 hPa | 0 mm | - | - | - |
| 1787615865 | 18.33° C | 56% | 1018.1 hPa | 0 mm | - | - | - |
| 1787615561 | 18.33° C | 56% | 1018.1 hPa | 0 mm | - | - | - |
| 1787615256 | 18.33° C | 56% | 1018.1 hPa | 0 mm | - | - | - |
| 1787614948 | 18.33° C | 58% | 1018.3 hPa | 0 mm | - | - | - |
| 1787614642 | 18.33° C | 59% | 1018.2 hPa | 0 mm | - | - | - |
| 1787614336 | 18.33° C | 60% | 1018.2 hPa | 0 mm | - | - | - |
| 1787614030 | 17.78° C | 60% | 1018.4 hPa | 0 mm | - | - | - |
| 1787613727 | 17.78° C | 62% | 1018.4 hPa | 0 mm | - | - | - |
* Rain latest hour (hover to see other rain measurements)
** Current wind speed in m/s (hover to see current wind gust speed)